Montgomery, AL

12:39 AM CDT on July 21, 2017 (GMT -0500)
Montgomery Regional

Weather History for KMGM - March, 2014

Change the Weather History Date:

Tuesday, March 11, 2014

  Actual Average Record
Temperature  
Mean Temperature 64 °F 56 °F  
Max Temperature 79 °F 69 °F 88 °F (1955)
Min Temperature 48 °F 45 °F 25 °F (1998)
Degree Days  
Heating Degree Days 1 9  
Month to date heating degree days 112 112  
Since 1 July heating degree days 2070 1984  
Cooling Degree Days 0 1  
Month to date cooling degree days 0 6  
Year to date cooling degree days 7 12  
Growing Degree Days 14 (Base 50)    
Moisture  
Dew Point 55 °F    
Average Humidity 68    
Maximum Humidity 93    
Minimum Humidity 43    
Precipitation  
Precipitation 0.64 in 0.20 in 4.69 in (1909)
Month to date precipitation 1.48 2.16  
Year to date precipitation 9.15 12.09  
Snow  
Snow 0.00 in 0.00 in - ()
Month to date snowfall 0.0 0.1  
Since 1 July snowfall 0.5 0.2  
Snow Depth 0.00 in    
Sea Level Pressure  
Sea Level Pressure 29.83 in    
Wind  
Wind Speed 3 mph (SSW)    
Max Wind Speed 13 mph    
Max Gust Speed 17 mph    
Visibility 7 miles    
Events Rain    
T = Trace of Precipitation, MM = Missing Value Source: NWS Daily Summary

Daily Weather History Graph

Daily Weather History Graph

Search for Another Location

Airport or City:

Trip Planner

Search our weather history database for the weather conditions in past years. The results will help you decide how hot, cold, wet, or windy it might be!

Date:

Astronomy

Mar. 11, 2014 Rise Set
Actual Time 7:00 AM CDT 6:50 PM CDT
Civil Twilight 6:36 AM CDT 7:15 PM CDT
Nautical Twilight 6:07 AM CDT 7:43 PM CDT
Astronomical Twilight 5:39 AM CDT 8:12 PM CDT
Moon 2:38 PM CDT (3/11) 3:41 AM CDT (3/11)
Length of Visible Light 12h 38m
Length of Day
11h 49m
Waxing Gibbous, 78% of the Moon is Illuminated
Mar 11
Waxing Gibbous
Mar 16
Full
Mar 23
Last Quarter
Mar 30
New
Apr 7
First Quarter

Hourly Weather History & Observations

Time (CDT) Temp. Dew Point Humidity Pressure Visibility Wind Dir Wind Speed Gust Speed Precip Events Conditions
12:53 AM 55.9 °F 51.1 °F 84% 29.94 in 10.0 mi SSW 4.6 mph - N/A   Clear
1:53 AM 53.1 °F 50.0 °F 89% 29.92 in 10.0 mi South 3.5 mph - N/A   Clear
2:53 AM 54.0 °F 48.9 °F 83% 29.91 in 10.0 mi SSW 5.8 mph - N/A   Clear
3:53 AM 51.1 °F 48.0 °F 89% 29.90 in 8.0 mi Calm Calm - N/A   Clear
4:53 AM 51.1 °F 48.0 °F 89% 29.89 in 9.0 mi Calm Calm - N/A   Clear
5:53 AM 51.1 °F 48.0 °F 89% 29.90 in 8.0 mi Calm Calm - N/A   Clear
6:53 AM 51.1 °F 48.0 °F 89% 29.89 in 6.0 mi Calm Calm - N/A   Clear
7:16 AM 48.2 °F 46.4 °F 93% 29.90 in 2.5 mi South 4.6 mph - N/A   Clear
7:26 AM 48.2 °F 46.4 °F 93% 29.90 in 3.0 mi South 3.5 mph - N/A   Clear
7:53 AM 53.1 °F 51.1 °F 93% 29.89 in 4.0 mi South 3.5 mph - N/A   Clear
8:53 AM 59.0 °F 53.1 °F 81% 29.92 in 9.0 mi South 5.8 mph - N/A   Clear
9:53 AM 64.9 °F 54.0 °F 68% 29.92 in 10.0 mi West 5.8 mph - N/A   Clear
10:53 AM 68.0 °F 55.0 °F 63% 29.91 in 10.0 mi SW 4.6 mph - N/A   Clear
11:53 AM 73.0 °F 55.0 °F 53% 29.89 in 10.0 mi Calm Calm - N/A   Clear
12:53 PM 77.0 °F 54.0 °F 45% 29.85 in 10.0 mi SSW 5.8 mph - N/A   Clear
1:53 PM 77.0 °F 54.0 °F 45% 29.81 in 10.0 mi Variable 4.6 mph - N/A   Scattered Clouds
2:53 PM 77.0 °F 55.0 °F 47% 29.77 in 10.0 mi SSE 5.8 mph - N/A   Overcast
3:53 PM 75.9 °F 54.0 °F 46% 29.75 in 10.0 mi South 8.1 mph - N/A   Overcast
4:53 PM 75.9 °F 54.0 °F 46% 29.74 in 10.0 mi SSW 4.6 mph - N/A   Overcast
5:53 PM 73.9 °F 55.9 °F 53% 29.73 in 10.0 mi SW 4.6 mph - 0.00 in   Overcast
6:53 PM 66.9 °F 61.0 °F 81% 29.76 in 4.0 mi SSW 8.1 mph - 0.00 in Rain Light Rain
7:53 PM 64.9 °F 62.1 °F 90% 29.76 in 3.0 mi Calm Calm - 0.04 in Rain Light Rain
8:06 PM 64.4 °F 62.6 °F 94% 29.76 in 2.5 mi Calm Calm - 0.01 in Rain Light Rain
8:25 PM 64.4 °F 62.6 °F 94% 29.77 in 1.2 mi Calm Calm - 0.06 in Rain Heavy Rain
8:36 PM 64.4 °F 62.6 °F 94% 29.77 in 1.8 mi Calm Calm - 0.08 in Rain Light Rain
8:53 PM 64.0 °F 62.1 °F 93% 29.77 in 2.0 mi Calm Calm - 0.09 in Rain Light Rain
9:25 PM 64.4 °F 62.6 °F 94% 29.77 in 3.0 mi SE 3.5 mph - 0.01 in Rain Light Rain
9:53 PM 63.0 °F 61.0 °F 93% 29.76 in 6.0 mi South 4.6 mph - 0.03 in Rain Light Rain
10:40 PM 64.4 °F 60.8 °F 88% 29.76 in 5.0 mi Calm Calm - 0.06 in Rain Light Rain
10:53 PM 63.0 °F 61.0 °F 93% 29.75 in 2.5 mi Calm Calm - 0.09 in Rain Rain
11:53 PM 62.1 °F 60.1 °F 93% 29.74 in 2.5 mi SSW 3.5 mph - 0.27 in Rain Rain